Location: Hopkins Observatory
(42.6965°N, 73.1843°W)
Time: 01:29:40
(UTC-04:00)

Amateur Radio Satellites - All Passes

Search period start: 26 September 2017 00:59
Search period end: 27 September 2017 00:59
Location: Hopkins Observatory, 42.6965°N, 73.1843°W

Satellite Date Start Highest point End Downlink Frequencies (MHz)
Time Altitude Azimuth
DX 1 26 Sep 01:00:04 01:04:05 38° 70° (ENE) 01:08:07 434.975-435.025
BUGSAT 1 26 Sep 01:03:43 01:07:01 22° 94° (E) 01:10:18 437.445
Oscar 19 26 Sep 01:07:43 01:09:58 13° 89° (E) 01:12:13 437.125/150
QB50P2 26 Sep 01:13:36 01:17:48 54° 287° (WNW) 01:21:57 145.880/145.840
SPROUT 26 Sep 01:15:54 01:19:32 27° 264° (W) 01:23:12 437.525
50 SAT 26 Sep 01:18:04 01:21:22 80° 76° (ENE) 01:24:41 437.505
nSIGHT-1 26 Sep 01:19:37 01:22:37 34° 24° (NNE) 01:25:38 .
VELOX 1 26 Sep 01:36:16 01:39:49 24° 265° (W) 01:43:24 145.980
YUBILEINY 26 Sep 01:42:11 01:47:37 18° 283° (WNW) 01:53:03 435.215
NANOSAT C BR1 26 Sep 01:46:46 01:50:30 30° 291° (WNW) 01:54:12 145.865
O/OREOS (USA 219) 26 Sep 01:51:25 01:55:42 45° 107° (ESE) 02:00:02 437.305
ITUPSAT 1 26 Sep 02:03:42 02:06:45 17° 61° (ENE) 02:09:47 437.325
M-CUBED/EXP-1 PRIME 26 Sep 02:10:35 02:13:52 64° 290° (WNW) 02:17:04 437.505
DUCHIFAT 1 26 Sep 02:14:23 02:17:20 18° 295° (WNW) 02:20:15 145.980
ISS 26 Sep 02:21:20 02:24:38 87° 230° (SW) 02:27:56 437.550
UKube-1 26 Sep 02:23:44 02:27:46 40° 261° (W) 02:31:50 .
POLYITAN 1 26 Sep 02:34:31 02:34:47 10° 300° (WNW) 02:35:04 437.675
BEESAT 26 Sep 02:37:04 02:41:22 35° 68° (ENE) 02:45:40 436.000
DX 1 26 Sep 02:37:14 02:40:24 20° 266° (W) 02:43:34 434.975-435.025
BUGSAT 1 26 Sep 02:38:37 02:42:25 33° 290° (WNW) 02:46:13 437.445
Oscar 19 26 Sep 02:44:41 02:49:53 78° 285° (WNW) 02:55:00 437.125/150
MOZHAYETS 4 26 Sep 02:45:35 02:49:52 39° 70° (ENE) 02:54:12
AO-7 26 Sep 02:45:56 02:49:59 14° 88° (E) 02:54:01 .
Gurwin Techsat 1B 26 Sep 02:50:13 02:55:34 80° 103° (ESE) 03:00:53 435.225
RS-15 26 Sep 02:53:55 02:58:37 13° 93° (E) 03:03:19 29.354- 29.394
nSIGHT-1 26 Sep 02:55:56 02:58:57 36° 222° (SW) 03:01:59 .
BEESAT 3 26 Sep 03:15:11 03:18:43 29° 47° (NE) 03:22:11 437.485
CUBESAT XI-V 26 Sep 03:19:53 03:23:20 21° 65° (ENE) 03:26:47 437.345
BEESAT 2 26 Sep 03:29:14 03:31:50 16° 41° (NE) 03:34:26 435.950
O/OREOS (USA 219) 26 Sep 03:31:57 03:35:20 20° 306° (NW) 03:38:45 437.305
AO-85 26 Sep 03:35:49 03:39:14 21° 44° (NE) 03:42:49 145.980
ITUPSAT 1 26 Sep 03:39:22 03:44:05 59° 259° (W) 03:48:50 437.325
ITAMSAT 1 26 Sep 03:55:29 04:00:09 32° 97° (E) 04:04:48 435.822/435.867
ISS 26 Sep 03:59:45 04:00:37 11° 230° (SW) 04:01:30 437.550
BEESAT 26 Sep 04:15:12 04:19:10 26° 265° (W) 04:23:10 436.000
KKS-1 26 Sep 04:23:29 04:27:21 31° 68° (ENE) 04:31:16 437.445
MOZHAYETS 4 26 Sep 04:23:36 04:27:09 22° 267° (W) 04:30:44
Oscar 19 26 Sep 04:26:54 04:28:18 11° 304° (NW) 04:29:42 437.125/150
Gurwin Techsat 1B 26 Sep 04:31:53 04:34:49 15° 301° (WNW) 04:37:45 435.225
AO-7 26 Sep 04:35:44 04:44:04 75° 107° (ESE) 04:52:21 .
STARS 26 Sep 04:40:57 04:44:08 20° 65° (ENE) 04:47:20 437.465
BEESAT 3 26 Sep 04:52:48 04:56:12 27° 246° (WSW) 04:59:32 437.485
CUBESAT XI-V 26 Sep 04:55:53 05:00:23 45° 261° (W) 05:04:54 437.345
RS-15 26 Sep 04:56:28 05:08:24 62° 114° (ESE) 05:20:25 29.354- 29.394
BEESAT 2 26 Sep 05:05:58 05:10:00 66° 240° (WSW) 05:13:57 435.950
AO-85 26 Sep 05:15:31 05:19:54 55° 240° (WSW) 05:24:37 145.980
ITAMSAT 1 26 Sep 05:34:57 05:39:33 33° 294° (WNW) 05:44:10 435.822/435.867
XW-2C 26 Sep 05:52:53 05:53:56 11° 90° (E) 05:54:57 145.795 - 145.815
STRAND 1 26 Sep 05:56:15 05:58:35 13° 58° (ENE) 06:00:55 437.568
KKS-1 26 Sep 06:00:16 06:03:55 25° 265° (W) 06:07:36 437.445
CUTE-I 26 Sep 06:03:56 06:07:15 17° 91° (E) 06:10:34 437.470
LilacSat-2 26 Sep 06:07:07 06:09:46 18° 93° (E) 06:12:25 437.200
KAITUO 1B 26 Sep 06:15:10 06:17:22 15° 92° (E) 06:19:32 145.475/437.950
STARS 26 Sep 06:16:07 06:20:11 39° 261° (W) 06:24:19 437.465
DOVE 4 26 Sep 06:16:41 06:20:59 87° 103° (ESE) 06:25:29 437.250
AO-7 26 Sep 06:29:28 06:36:05 28° 306° (NW) 06:42:41 .
XW-2D 26 Sep 06:50:40 06:54:26 58° 100° (E) 06:58:09 145.860 - 145.880
HO-68 26 Sep 06:52:02 06:57:08 20° 91° (E) 07:02:12 435.675
XW-2F 26 Sep 07:00:47 07:04:35 71° 101° (ESE) 07:08:19 145.980 - 146.000
XW-2B 26 Sep 07:03:05 07:06:55 80° 101° (ESE) 07:10:41 145.730 - 145.750
RS-15 26 Sep 07:09:35 07:21:24 49° 318° (NW) 07:33:13 29.354- 29.394
NUDT-PHONESAT 26 Sep 07:14:42 07:18:26 80° 100° (E) 07:22:08 437.300
XW-2C 26 Sep 07:24:42 07:28:26 53° 286° (WNW) 07:32:06 145.795 - 145.815
CUTE 1.7 + AOD 2 26 Sep 07:26:10 07:29:50 28° 95° (E) 07:33:27 437.475
FO-29 26 Sep 07:28:22 07:30:19 12° 58° (ENE) 07:32:14 435.910
STRAND 1 26 Sep 07:31:55 07:37:01 86° 254° (WSW) 07:42:10 437.568
LilacSat-2 26 Sep 07:40:41 07:44:07 32° 289° (WNW) 07:47:32 437.200
CUTE-I 26 Sep 07:42:27 07:47:45 65° 288° (WNW) 07:53:02 437.470
KAITUO 1B 26 Sep 07:48:02 07:51:30 36° 288° (WNW) 07:54:55 145.475/437.950
XW-2A 26 Sep 08:18:01 08:21:18 42° 99° (E) 08:24:33 145.665 - 145.685
CUBEBUG 2 26 Sep 08:24:07 08:28:51 71° 102° (ESE) 08:33:35 437.445
UWE-3 26 Sep 08:25:09 08:29:37 42° 98° (E) 08:34:02 435.000/436.395/437.385
XW-2D 26 Sep 08:26:55 08:28:06 11° 297° (WNW) 08:29:16 145.860 - 145.880
UNISAT 6 26 Sep 08:27:04 08:28:02 11° 59° (ENE) 08:29:00 437.425
SEEDS 26 Sep 08:27:47 08:31:59 86° 98° (E) 08:36:09 437.485
HO-68 26 Sep 08:38:20 08:45:32 77° 289° (WNW) 08:52:43 435.675
AAUSAT CUBESAT 2 26 Sep 08:41:47 08:45:49 53° 100° (E) 08:49:48 437.432
TIGRISAT 26 Sep 08:47:57 08:50:40 16° 63° (ENE) 08:53:25 435.000
Oscar 11 26 Sep 08:57:36 09:01:27 30° 96° (E) 09:05:15 .
AO-73 26 Sep 09:01:35 09:06:03 49° 99° (E) 09:10:26 145.935
CUTE 1.7 + AOD 2 26 Sep 09:02:03 09:05:34 26° 292° (WNW) 09:09:02 437.475
ZACube-1 26 Sep 09:06:11 09:10:45 63° 101° (E) 09:15:15 437.345
FO-29 26 Sep 09:09:07 09:14:44 88° 78° (ENE) 09:19:59 435.910
RS-15 26 Sep 09:28:11 09:37:57 26° 351° (N) 09:47:33 29.354- 29.394
DELFI C3 26 Sep 09:44:01 09:46:59 21° 94° (E) 09:49:57 145.870
XW-2A 26 Sep 09:52:19 09:53:37 12° 295° (WNW) 09:54:55 145.665 - 145.685
UNISAT 6 26 Sep 09:59:38 10:03:59 85° 254° (WSW) 10:08:30 437.425
UWE-3 26 Sep 10:02:13 10:05:46 22° 294° (WNW) 10:09:18 435.000/436.395/437.385
CUBEBUG 2 26 Sep 10:02:23 10:04:53 14° 298° (WNW) 10:07:22 437.445
PRISM 26 Sep 10:03:27 10:07:26 56° 73° (ENE) 10:11:27 437.425
Max Valier Satellite 26 Sep 10:10:21 10:13:41 30° 97° (E) 10:16:59 145.860
AAUSAT CUBESAT 2 26 Sep 10:18:40 10:20:49 14° 296° (WNW) 10:22:56 437.432
TIGRISAT 26 Sep 10:22:38 10:26:54 52° 261° (W) 10:31:16 435.000
O/OREOS (USA 219) 26 Sep 10:22:44 10:24:58 13° 50° (NE) 10:27:12 437.305
HO-68 26 Sep 10:27:58 10:32:07 17° 308° (NW) 10:36:16 435.675
QB50P2 26 Sep 10:33:35 10:35:17 12° 61° (ENE) 10:37:00 145.880/145.840
Oscar 11 26 Sep 10:33:53 10:37:27 25° 292° (WNW) 10:40:59 .
AIST 2D 26 Sep 10:35:14 10:38:03 22° 69° (ENE) 10:40:53 435.315
AO-73 26 Sep 10:38:47 10:41:53 18° 296° (WNW) 10:44:57 145.935
ZACube-1 26 Sep 10:43:54 10:46:29 15° 298° (WNW) 10:49:04 437.345
YUBILEINY 26 Sep 10:51:37 10:57:37 21° 78° (ENE) 11:03:38 435.215
FO-29 26 Sep 10:59:21 11:00:29 11° 271° (W) 11:01:37 435.910
NO-84 26 Sep 11:00:02 11:01:30 12° 125° (SE) 11:02:56 435.350 FM
EO-88 26 Sep 11:04:03 11:07:43 75° 284° (WNW) 11:11:20 145.990 - 145.960
NANOSAT C BR1 26 Sep 11:04:16 11:07:23 21° 66° (ENE) 11:10:32 145.865
DELFI C3 26 Sep 11:18:21 11:21:46 29° 290° (WNW) 11:25:10 145.870
M-CUBED/EXP-1 PRIME 26 Sep 11:23:43 11:26:14 16° 61° (ENE) 11:28:41 437.505
DUCHIFAT 1 26 Sep 11:30:13 11:33:58 33° 70° (ENE) 11:37:46 145.980
ESTCUBE 1 26 Sep 11:33:05 11:36:31 21° 93° (E) 11:39:55 437.505/2401.250
PRISM 26 Sep 11:41:25 11:43:03 12° 269° (W) 11:44:41 437.425
Max Valier Satellite 26 Sep 11:44:37 11:47:18 19° 293° (WNW) 11:49:58 145.860
RS-15 26 Sep 11:44:59 11:55:36 33° 26° (NNE) 12:05:46 29.354- 29.394
POLYITAN 1 26 Sep 11:48:09 11:52:20 68° 75° (ENE) 11:56:34 437.675
LO-87 26 Sep 11:50:31 11:54:01 47° 99° (E) 11:57:31 145.935 - 145.965
EO-79 26 Sep 11:51:33 11:55:44 75° 74° (ENE) 11:59:58 145.935-145.965
BUGSAT 1 26 Sep 11:54:42 11:57:19 17° 64° (ENE) 11:59:56 437.445
O/OREOS (USA 219) 26 Sep 12:00:23 12:05:01 82° 248° (WSW) 12:09:37 437.305
QB50P2 26 Sep 12:06:19 12:10:30 67° 259° (WSW) 12:14:44 145.880/145.840
AIST 2D 26 Sep 12:08:20 12:11:09 22° 265° (W) 12:13:59 435.315
Oscar 19 26 Sep 12:24:29 12:28:26 22° 63° (ENE) 12:32:23 437.125/150
SO-50 26 Sep 12:27:18 12:29:41 14° 109° (ESE) 12:32:04 436.795
Gurwin Techsat 1B 26 Sep 12:34:16 12:37:57 19° 61° (ENE) 12:41:38 435.225
NO-84 26 Sep 12:34:32 12:38:30 88° 142° (SE) 12:42:09 435.350 FM
NANOSAT C BR1 26 Sep 12:39:00 12:42:51 36° 262° (W) 12:46:45 145.865
YUBILEINY 26 Sep 12:44:37 12:53:20 81° 279° (W) 13:02:05 435.215
PCSat 26 Sep 12:54:52 12:57:15 13° 103° (ESE) 12:59:38 145.827
M-CUBED/EXP-1 PRIME 26 Sep 12:56:18 13:00:23 48° 254° (WSW) 13:04:12 437.505
SPROUT 26 Sep 12:59:51 13:03:59 44° 99° (E) 13:08:05 437.525
DUCHIFAT 1 26 Sep 13:06:31 13:09:42 21° 266° (W) 13:12:55 145.980
ESTCUBE 1 26 Sep 13:09:16 13:13:25 38° 290° (WNW) 13:17:33 437.505/2401.250
VELOX 1 26 Sep 13:24:13 13:28:34 58° 101° (E) 13:32:53 145.980
LO-87 26 Sep 13:25:34 13:27:00 12° 296° (WNW) 13:28:27 145.935 - 145.965
POLYITAN 1 26 Sep 13:27:44 13:28:34 10° 271° (W) 13:29:25 437.675
BUGSAT 1 26 Sep 13:28:30 13:32:19 41° 261° (W) 13:36:13 437.445
AO-7 26 Sep 13:45:08 13:51:39 26° 53° (NE) 13:58:08 .
RS-15 26 Sep 13:58:11 14:10:18 80° 55° (NE) 14:21:42 29.354- 29.394
Oscar 19 26 Sep 14:02:21 14:07:24 50° 260° (W) 14:12:28 437.125/150
SO-50 26 Sep 14:05:08 14:09:35 66° 306° (NW) 14:14:05 436.795
50 SAT 26 Sep 14:09:37 14:12:55 65° 102° (ESE) 14:16:12 437.505
UKube-1 26 Sep 14:09:47 14:13:33 29° 97° (E) 14:17:20 .
Gurwin Techsat 1B 26 Sep 14:12:10 14:17:25 61° 259° (WSW) 14:22:41 435.225
NO-84 26 Sep 14:13:29 14:16:16 19° 336° (NNW) 14:18:53 435.350 FM
DX 1 26 Sep 14:22:58 14:27:17 65° 102° (ESE) 14:31:35 434.975-435.025
PCSat 26 Sep 14:34:25 14:39:51 87° 298° (WNW) 14:45:19 145.827
SPROUT 26 Sep 14:36:39 14:39:32 18° 296° (WNW) 14:42:25 437.525
YUBILEINY 26 Sep 14:46:15 14:51:39 18° 301° (WNW) 14:57:05 435.215
VELOX 1 26 Sep 15:02:04 15:04:31 15° 298° (WNW) 15:06:59 145.980
ITAMSAT 1 26 Sep 15:14:01 15:19:02 54° 71° (ENE) 15:24:05 435.822/435.867
AO-7 26 Sep 15:35:15 15:43:35 79° 253° (WSW) 15:51:57 .
ITUPSAT 1 26 Sep 15:39:09 15:43:30 32° 97° (E) 15:47:48 437.325
UKube-1 26 Sep 15:45:54 15:49:28 26° 293° (WNW) 15:53:01 .
SO-50 26 Sep 15:49:02 15:50:56 12° 327° (NNW) 15:52:51 436.795
NO-84 26 Sep 15:54:09 15:54:44 10° 357° (N) 15:55:20 435.350 FM
DX 1 26 Sep 16:00:52 16:02:56 13° 299° (WNW) 16:04:59 434.975-435.025
RS-15 26 Sep 16:11:57 16:21:24 30° 258° (WSW) 16:30:31 29.354- 29.394
BEESAT 26 Sep 16:13:18 16:18:07 73° 102° (ESE) 16:22:54 436.000
MOZHAYETS 4 26 Sep 16:16:20 16:21:00 83° 105° (ESE) 16:25:37
PCSat 26 Sep 16:20:31 16:24:03 17° 320° (NW) 16:27:36 145.827
LilacSat-2 26 Sep 16:51:12 16:52:25 11° 63° (ENE) 16:53:37 437.200
CUBESAT XI-V 26 Sep 16:51:26 16:55:49 41° 98° (E) 17:00:09 437.345
ITAMSAT 1 26 Sep 16:55:12 16:58:48 19° 268° (W) 17:02:27 435.822/435.867
ITUPSAT 1 26 Sep 17:17:05 17:21:12 29° 294° (WNW) 17:25:18 437.325
DOVE 4 26 Sep 17:22:51 17:27:13 87° 257° (WSW) 17:31:26 437.250
HO-68 26 Sep 17:22:55 17:27:28 18° 53° (NE) 17:32:02 435.675
CUTE-I 26 Sep 17:26:02 17:30:35 30° 65° (ENE) 17:35:09 437.470
NO-84 26 Sep 17:31:15 17:33:19 16° 19° (NNE) 17:35:17 435.350 FM
XW-2D 26 Sep 17:32:24 17:35:48 31° 70° (ENE) 17:39:13 145.860 - 145.880
AO-7 26 Sep 17:33:04 17:37:34 15° 272° (W) 17:42:06 .
XW-2F 26 Sep 17:41:59 17:45:30 36° 72° (ENE) 17:49:03 145.980 - 146.000
XW-2B 26 Sep 17:44:37 17:48:14 41° 72° (ENE) 17:51:52 145.730 - 145.750
KKS-1 26 Sep 17:49:15 17:53:37 55° 100° (E) 17:58:00 437.445
BEESAT 26 Sep 17:52:48 17:55:16 14° 300° (WNW) 17:57:44 436.000
NUDT-PHONESAT 26 Sep 17:54:09 17:57:37 37° 72° (ENE) 18:01:08 437.300
MOZHAYETS 4 26 Sep 17:55:49 17:57:27 12° 300° (WNW) 17:59:04
STARS 26 Sep 18:04:21 18:08:20 32° 97° (E) 18:12:19 437.465
XW-2C 26 Sep 18:05:55 18:09:45 78° 76° (ENE) 18:13:38 145.795 - 145.815
CUTE 1.7 + AOD 2 26 Sep 18:19:35 18:22:56 23° 67° (ENE) 18:26:19 437.475
LilacSat-2 26 Sep 18:22:19 18:26:09 61° 260° (W) 18:30:01 437.200
KAITUO 1B 26 Sep 18:27:44 18:31:33 77° 260° (W) 18:35:21 145.475/437.950
CUBESAT XI-V 26 Sep 18:29:26 18:32:54 21° 295° (WNW) 18:36:22 437.345
Tancredo 1 26 Sep 18:41:25 18:44:04 81° 145° (SE) 18:46:45 437.200
BEESAT 3 26 Sep 18:42:09 18:45:50 36° 116° (ESE) 18:49:34 437.485
XW-2A 26 Sep 18:50:30 18:52:45 17° 67° (ENE) 18:55:02 145.665 - 145.685
BEESAT 2 26 Sep 18:58:41 19:01:18 17° 111° (ESE) 19:03:58 435.950
ISS 26 Sep 19:02:24 19:04:44 18° 133° (SE) 19:07:04 437.550
CUTE-I 26 Sep 19:05:37 19:10:29 37° 263° (W) 19:15:24 437.470
HO-68 26 Sep 19:07:02 19:14:11 85° 73° (ENE) 19:21:24 435.675
XW-2D 26 Sep 19:07:13 19:10:01 19° 267° (W) 19:12:50 145.860 - 145.880
NO-84 26 Sep 19:08:02 19:11:09 84° 40° (NE) 19:14:03 435.350 FM
XW-2F 26 Sep 19:17:17 19:19:45 16° 268° (W) 19:22:13 145.980 - 146.000
SEEDS 26 Sep 19:19:33 19:23:44 63° 74° (ENE) 19:27:56 437.485
XW-2B 26 Sep 19:20:26 19:22:36 15° 268° (W) 19:24:47 145.730 - 145.750
CUBEBUG 2 26 Sep 19:22:40 19:26:53 60° 73° (ENE) 19:31:16 437.445
UWE-3 26 Sep 19:22:42 19:26:40 35° 69° (ENE) 19:30:44 435.000/436.395/437.385
KKS-1 26 Sep 19:27:04 19:29:44 16° 298° (WNW) 19:32:25 437.445
NUDT-PHONESAT 26 Sep 19:29:27 19:31:39 15° 268° (W) 19:33:52 437.300
AO-85 26 Sep 19:31:11 19:34:44 35° 117° (ESE) 19:38:21 145.980
AAUSAT CUBESAT 2 26 Sep 19:32:13 19:36:04 38° 71° (ENE) 19:39:55 437.432
nSIGHT-1 26 Sep 19:34:19 19:37:21 40° 140° (SE) 19:40:25 .
STARS 26 Sep 19:40:57 19:44:31 25° 294° (WNW) 19:48:05 437.465
STRAND 1 26 Sep 19:41:56 19:46:28 30° 96° (E) 19:50:58 437.568
Oscar 11 26 Sep 19:53:04 19:56:41 26° 68° (ENE) 20:00:18 .
CUTE 1.7 + AOD 2 26 Sep 19:54:43 19:58:35 33° 263° (W) 20:02:29 437.475
AO-73 26 Sep 19:57:24 20:01:29 40° 71° (ENE) 20:05:42 145.935
ZACube-1 26 Sep 20:02:13 20:06:27 51° 73° (ENE) 20:10:48 437.345
Tancredo 1 26 Sep 20:16:46 20:18:45 18° 343° (NNW) 20:20:44 437.200
BEESAT 3 26 Sep 20:20:10 20:23:29 24° 314° (NW) 20:26:50 437.485
XW-2A 26 Sep 20:22:15 20:25:15 28° 264° (W) 20:28:16 145.665 - 145.685
DELFI C3 26 Sep 20:30:51 20:32:57 14° 64° (ENE) 20:35:04 145.870
BEESAT 2 26 Sep 20:34:49 20:38:41 46° 308° (NW) 20:42:37 435.950
ISS 26 Sep 20:37:41 20:40:55 57° 330° (NNW) 20:44:10 437.550
Max Valier Satellite 26 Sep 20:50:33 20:52:54 16° 66° (ENE) 20:55:16 145.860
SO-50 26 Sep 20:55:46 20:59:15 21° 41° (NE) 21:02:44 436.795
HO-68 26 Sep 20:58:15 21:02:44 18° 271° (W) 21:07:16 435.675
SEEDS 26 Sep 20:58:20 20:59:48 12° 271° (W) 21:01:18 437.485
UWE-3 26 Sep 20:59:49 21:03:11 22° 267° (W) 21:06:40 435.000/436.395/437.385
YUBILEINY 26 Sep 21:01:58 21:03:10 10° 51° (NE) 21:04:22 435.215
CUBEBUG 2 26 Sep 21:02:04 21:03:56 13° 271° (W) 21:05:51 437.445
AAUSAT CUBESAT 2 26 Sep 21:08:45 21:11:39 18° 267° (W) 21:14:34 437.432
nSIGHT-1 26 Sep 21:10:47 21:13:44 31° 337° (NNW) 21:16:41 .
AO-85 26 Sep 21:12:05 21:15:13 22° 315° (NW) 21:18:24 145.980
STRAND 1 26 Sep 21:21:01 21:25:38 34° 293° (WNW) 21:30:14 437.568
Oscar 11 26 Sep 21:28:54 21:32:42 29° 264° (W) 21:36:32 .
AO-73 26 Sep 21:34:43 21:37:53 19° 268° (W) 21:41:08 145.935
PCSat 26 Sep 21:39:18 21:42:50 17° 40° (NE) 21:46:22 145.827
ZACube-1 26 Sep 21:40:26 21:43:03 15° 270° (W) 21:45:41 437.345
EO-88 26 Sep 21:41:55 21:45:28 48° 73° (ENE) 21:49:01 145.990 - 145.960
UNISAT 6 26 Sep 21:51:01 21:54:31 20° 93° (E) 21:57:59 437.425
Tancredo 1 26 Sep 21:52:37 21:53:55 13° 3° (N) 21:55:12 437.200
FO-29 26 Sep 22:00:40 22:06:16 73° 103° (ESE) 22:12:33 435.910
DELFI C3 26 Sep 22:03:30 22:07:18 48° 261° (W) 22:11:08 145.870
TIGRISAT 26 Sep 22:13:11 22:17:21 31° 96° (E) 22:21:31 435.000
ISS 26 Sep 22:15:26 22:17:55 19° 349° (N) 22:20:24 437.550
Max Valier Satellite 26 Sep 22:23:00 22:26:26 36° 263° (W) 22:29:55 145.860
LO-87 26 Sep 22:27:35 22:30:18 21° 68° (ENE) 22:33:02 145.935 - 145.965
ESTCUBE 1 26 Sep 22:33:18 22:36:48 22° 66° (ENE) 22:40:18 437.505/2401.250
SO-50 26 Sep 22:35:32 22:40:04 61° 240° (WSW) 22:44:39 436.795
nSIGHT-1 26 Sep 22:48:34 22:50:47 17° 357° (N) 22:52:59 .
YUBILEINY 26 Sep 22:53:52 23:02:24 53° 76° (ENE) 23:10:54 435.215
EO-88 26 Sep 23:18:13 23:19:23 11° 270° (W) 23:20:33 145.990 - 145.960
PRISM 26 Sep 23:18:47 23:22:52 84° 103° (ESE) 23:26:55 437.425
PCSat 26 Sep 23:21:35 23:27:02 87° 59° (ENE) 23:32:27 145.827
Tancredo 1 26 Sep 23:26:39 23:28:58 26° 23° (NNE) 23:31:17 437.200
UNISAT 6 26 Sep 23:26:56 23:31:22 43° 289° (WNW) 23:35:49 437.425
AIST 2D 26 Sep 23:32:01 23:34:54 23° 95° (E) 23:37:46 435.315
POLYITAN 1 26 Sep 23:34:45 23:35:41 11° 89° (E) 23:36:37 437.675
EO-79 26 Sep 23:37:28 23:38:57 12° 89° (E) 23:40:26 145.935-145.965
FO-29 26 Sep 23:47:18 23:50:55 18° 298° (WNW) 23:54:45 435.910
TIGRISAT 26 Sep 23:49:55 23:53:56 29° 292° (WNW) 23:57:57 435.000
QB50P2 26 Sep 23:51:06 23:54:07 19° 93° (E) 23:57:08 145.880/145.840
ISS 26 Sep 23:52:48 23:55:15 19° 10° (N) 23:57:42 437.550
SPROUT 26 Sep 23:53:39 23:57:32 36° 70° (ENE) 00:01:26 437.525
LO-87 27 Sep 00:00:44 00:03:36 23° 265° (W) 00:06:30 145.935 - 145.965
ESTCUBE 1 27 Sep 00:09:08 00:13:22 38° 262° (W) 00:17:36 437.505/2401.250
VELOX 1 27 Sep 00:21:47 00:26:05 56° 73° (ENE) 00:30:23 145.980
NANOSAT C BR1 27 Sep 00:22:08 00:25:59 32° 97° (E) 00:29:48 145.865
nSIGHT-1 27 Sep 00:25:11 00:27:55 24° 18° (NNE) 00:30:39 .
50 SAT 27 Sep 00:40:13 00:42:53 23° 69° (ENE) 00:45:32 437.505
DUCHIFAT 1 27 Sep 00:48:15 00:52:27 55° 100° (E) 00:56:37 145.980
